Bluefield, WV

11:14 AM EDT on March 25, 2017 (GMT -0400)
Mercer County

Weather History for KBLF - June, 2013

Change the Weather History Date:

Monday, June 17, 2013

  Actual Average Record
Temperature  
Mean Temperature 75 °F 70 °F  
Max Temperature 84 °F 79 °F 87 °F (2015)
Min Temperature 65 °F 62 °F 47 °F (1961)
Degree Days  
Heating Degree Days 0 0  
Month to date heating degree days 0 21  
Since 1 June heating degree days 0 21  
Since 1 July heating degree days 4686 4587  
Cooling Degree Days 10 6  
Month to date cooling degree days 92 78  
Year to date cooling degree days 206 169  
Since 1 June cooling degree days 92 78  
Growing Degree Days 23 (Base 50)    
Moisture  
Dew Point 62 °F    
Average Humidity 67    
Maximum Humidity 87    
Minimum Humidity 47    
Precipitation  
Precipitation 0.11 in 0.14 in 0.98 in (1977)
Month to date precipitation 3.07 2.41  
Year to date precipitation 21.60 19.23  
Snow  
Snow 0.00 in - - ()
Month to date snowfall 0.0  
Since 1 June snowfall 0.0  
Since 1 July snowfall 56.0  
Snow Depth 0.00 in    
Sea Level Pressure  
Sea Level Pressure 30.02 in    
Wind  
Wind Speed 4 mph (West)    
Max Wind Speed 10 mph    
Max Gust Speed -    
Visibility 9 miles    
Events Rain    
T = Trace of Precipitation, MM = Missing Value Source: NWS Daily Summary

Daily Weather History Graph

Daily Weather History Graph

Search for Another Location

Airport or City:

Trip Planner

Search our weather history database for the weather conditions in past years. The results will help you decide how hot, cold, wet, or windy it might be!

Date:

Astronomy

Jun. 17, 2013 Rise Set
Actual Time 6:03 AM EDT 8:47 PM EDT
Civil Twilight 5:32 AM EDT 9:18 PM EDT
Nautical Twilight 4:54 AM EDT 9:57 PM EDT
Astronomical Twilight 4:10 AM EDT 10:41 PM EDT
Moon 2:31 PM EDT (6/17) 1:31 AM EDT (6/17)
Length of Visible Light 15h 45m
Length of Day
14h 43m
First Quarter, 60% of the Moon is Illuminated
Jun 17
First Quarter
Jun 23
Full
Jun 30
Last Quarter
Jul 8
New
Jul 15
First Quarter

Hourly Weather History & Observations

Time (EDT) Temp. Heat Index Dew Point Humidity Pressure Visibility Wind Dir Wind Speed Gust Speed Precip Events Conditions
12:52 AM 64.9 °F - 61.0 °F 87% 30.13 in 10.0 mi South 3.5 mph - 0.00 in Rain Light Rain
1:39 AM 64.4 °F - 60.8 °F 88% 30.12 in 2.0 mi Calm Calm - 0.00 in   Overcast
1:48 AM 64.4 °F - 60.8 °F 88% 30.12 in 10.0 mi Calm Calm - 0.00 in   Overcast
1:52 AM 66.0 °F - 61.0 °F 84% 30.12 in 10.0 mi Calm Calm - 0.00 in   Overcast
2:52 AM 66.0 °F - 61.0 °F 84% 30.11 in 10.0 mi Calm Calm - N/A   Overcast
3:52 AM 66.0 °F - 61.0 °F 84% 30.00 in 4.0 mi SW 9.2 mph - 0.04 in Rain Rain
4:20 AM 66.2 °F - 60.8 °F 83% 30.12 in 10.0 mi Variable 6.9 mph - 0.06 in Rain Light Rain
4:52 AM 66.0 °F - 61.0 °F 84% 30.02 in 10.0 mi SW 4.6 mph - 0.07 in   Overcast
5:07 AM 66.2 °F - 60.8 °F 83% 30.12 in 10.0 mi Calm Calm - 0.00 in Rain Light Rain
5:52 AM 64.9 °F - 61.0 °F 87% 30.01 in 9.0 mi Calm Calm - 0.00 in   Mostly Cloudy
6:52 AM 66.0 °F - 61.0 °F 84% 30.00 in 8.0 mi West 4.6 mph - N/A   Overcast
7:52 AM 66.9 °F - 62.1 °F 84% 30.01 in 6.0 mi WSW 5.8 mph - N/A   Haze
8:52 AM 70.0 °F - 63.0 °F 78% 30.01 in 10.0 mi WSW 6.9 mph - N/A   Clear
9:52 AM 73.0 °F - 64.0 °F 73% 30.01 in 10.0 mi WSW 5.8 mph - N/A   Mostly Cloudy
10:04 AM 73.4 °F - 62.6 °F 69% 30.11 in 10.0 mi West 5.8 mph - N/A   Mostly Cloudy
10:23 AM 73.4 °F - 62.6 °F 69% 30.11 in 10.0 mi WNW 5.8 mph - N/A   Mostly Cloudy
10:52 AM 73.9 °F - 62.1 °F 66% 30.01 in 10.0 mi West 6.9 mph - N/A   Mostly Cloudy
11:04 AM 75.2 °F - 62.6 °F 65% 30.12 in 10.0 mi WNW 9.2 mph - N/A   Partly Cloudy
11:52 AM 77.0 °F - 64.0 °F 64% 30.01 in 10.0 mi WSW 6.9 mph - N/A   Scattered Clouds
12:52 PM 78.1 °F - 62.1 °F 58% 29.99 in 10.0 mi NW 6.9 mph - N/A   Partly Cloudy
1:52 PM 79.0 °F - 63.0 °F 58% 29.99 in 10.0 mi WNW 6.9 mph - N/A   Partly Cloudy
2:52 PM 81.0 °F 81.7 °F 61.0 °F 50% 29.96 in 10.0 mi NW 3.5 mph - N/A   Scattered Clouds
3:52 PM 81.0 °F 81.7 °F 61.0 °F 50% 29.95 in 10.0 mi NW 5.8 mph - N/A   Scattered Clouds
4:52 PM 82.0 °F 82.7 °F 61.0 °F 49% 29.92 in 10.0 mi WNW 6.9 mph - N/A   Scattered Clouds
5:52 PM 82.0 °F 83.1 °F 63.0 °F 52% 29.92 in 10.0 mi WSW 6.9 mph - N/A   Clear
6:52 PM 79.0 °F - 62.1 °F 56% 29.92 in 10.0 mi West 4.6 mph - N/A   Clear
7:52 PM 77.0 °F - 63.0 °F 62% 29.93 in 10.0 mi West 3.5 mph - N/A   Clear
8:52 PM 73.9 °F - 64.0 °F 71% 29.94 in 10.0 mi WSW 4.6 mph - N/A   Clear
9:52 PM 73.0 °F - 64.0 °F 73% 29.94 in 10.0 mi Calm Calm - N/A   Clear
10:52 PM 72.0 °F - 64.0 °F 76% 29.94 in 10.0 mi Calm Calm - N/A   Clear
11:52 PM 71.1 °F - 63.0 °F 75% 29.94 in 10.0 mi West 3.5 mph - N/A   Clear